Wind_Speed
3 2 2 3 3 2 3 3 3 3 3 3 3 3 3 3 2 2 2 3 2 2 1 0 1 1 1 1 1 1 2 2 3 3 3 3 3 3 4 4 5 5 6
2 2 1 2 2 2 2 2 2 1 2 3 3 3 3 3 3 3 2 3 3 2 1 1 1 1 1 1 2 2 2 2 2 3 3 3 3 4 4 4 5 5 6
2 1 1 0 1 1 1 1 1 1 1 2 3 3 3 3 3 3 2 3 3 2 1 1 1 1 1 2 2 2 2 3 3 3 3 4 4 4 4 5 5 6 6
2 1 0 0 0 1 1 1 1 2 1 2 3 3 3 3 2 2 2 2 2 2 2 2 2 2 2 2 2 2 2 3 3 3 3 4 4 4 5 5 5 5 6
2 1 1 1 0 0 1 1 2 2 2 2 2 3 3 3 2 2 2 2 2 2 2 2 3 3 3 3 3 3 3 3 3 4 4 4 4 4 5 6 5 5 6
2 2 2 1 1 0 1 2 2 2 2 2 2 3 3 3 3 3 2 3 3 3 3 3 3 3 3 3 3 3 3 3 3 4 4 4 4 4 5 5 6 6 6
3 3 2 3 2 2 2 1 2 3 3 3 3 3 3 3 3 3 3 3 3 4 3 3 3 4 4 3 3 4 4 4 3 3 4 4 4 3 4 4 5 6 7
4 3 3 3 3 2 2 2 2 3 3 3 3 3 3 3 4 4 4 4 4 4 4 4 4 4 4 4 4 4 5 4 4 4 4 4 4 4 4 4 5 6 6
4 4 4 4 3 3 2 2 3 3 3 3 4 3 3 3 4 4 4 5 5 5 4 4 4 4 4 5 5 4 4 4 5 4 5 5 5 5 5 4 5 6 6
5 5 5 5 5 5 5 4 3 3 4 4 4 4 4 4 4 5 5 5 5 5 4 4 4 4 4 5 5 4 4 4 4 5 5 5 5 5 5 5 5 6 7
6 6 6 6 5 5 5 4 4 4 4 4 4 4 5 5 5 5 5 5 5 5 5 4 5 5 4 4 4 4 4 4 5 5 5 5 6 6 6 6 6 6 7
6 6 6 7 7 5 4 5 5 4 4 4 5 5 6 6 6 5 5 4 5 5 5 5 4 4 4 4 4 4 4 5 5 5 6 6 6 6 7 6 6 7 8
6 6 6 6 7 6 5 5 6 5 4 4 5 6 6 6 6 5 5 5 5 5 5 5 4 4 5 4 4 4 5 5 5 5 6 6 7 7 7 7 8 8 8
6 6 6 6 6 6 6 6 5 5 5 5 5 6 6 6 6 6 5 5 5 5 5 5 5 4 5 4 5 5 5 6 6 5 6 6 6 7 6 7 7 8 9
8 7 6 5 5 6 6 6 5 5 6 5 6 6 6 6 6 6 6 6 5 5 5 5 5 5 5 5 5 5 6 6 6 7 7 7 6 7 7 7 7 8 9
9 8 7 6 6 6 7 6 6 6 6 6 6 6 6 6 6 5 6 5 5 5 5 5 5 5 5 5 6 6 6 6 7 7 7 6 7 7 8 8 8 8 8
8 7 6 6 7 7 7 7 7 7 7 7 7 7 6 6 6 6 5 5 5 6 5 6 6 6 6 6 6 6 6 7 7 7 7 7 7 7 7 8 8 8 8
8 8 8 7 8 7 7 7 8 8 8 8 8 7 7 6 6 6 5 6 6 6 5 6 6 6 6 6 7 6 6 6 6 7 7 7 8 7 8 8 8 7 8
8 8 8 8 8 7 7 8 8 9 8 8 8 8 7 6 6 6 5 6 6 6 6 6 6 6 6 6 6 6 6 6 6 7 7 8 9 8 8 8 8 8 8
9 8 8 8 8 8 8 8 8 9 9 9 8 8 7 7 6 6 6 6 6 6 6 6 6 6 6 6 6 6 7 7 7 7 7 7 8 8 8 9 9 9 8
9 9 8 8 8 9 8 8 9 9 10 9 9 8 7 7 7 7 7 6 6 6 6 6 6 6 6 6 7 7 7 7 8 8 8 8 8 8 9 9 9 9 8
10 9 9 9 9 9 9 9 9 9 9 9 9 9 8 8 7 8 8 7 6 7 7 7 7 7 7 7 7 7 8 9 8 8 8 8 9 9 9 9 10 10 10
10 10 10 10 10 10 10 10 9 9 9 10 10 10 9 9 8 8 8 8 7 7 7 7 8 8 8 8 8 8 8 9 9 9 8 8 9 9 10 10 11 10 11
10 10 11 11 11 11 10 10 9 10 10 10 10 10 9 9 9 9 9 9 8 7 7 8 8 8 9 9 9 9 9 9 8 8 9 9 10 10 11 11 11 11 11
10 11 11 11 11 11 11 10 10 10 10 10 10 9 9 9 9 10 10 9 8 8 8 8 8 9 9 10 10 9 9 9 9 10 10 10 11 11 11 11 11 12 12
10 10 10 10 11 12 11 11 11 11 10 10 10 10 10 10 10 10 10 10 10 9 10 10 10 10 10 10 10 10 10 10 10 11 11 11 11 11 12 12 12 12 12
Wind_Direction
144 126 103 94 84 57 46 41 43 44 35 18 13 12 13 12 12 12 11 5 355 348 340 295 213 236 235 248 258 284 279 264 249 246 233 229 232 232 226 227 221 213 207
161 162 129 85 77 58 50 33 31 37 31 16 10 12 10 1 4 6 1 354 347 343 343 333 273 247 254 272 273 287 285 268 260 250 240 235 239 237 238 239 233 228 220
167 179 203 120 81 73 50 29 21 2 12 8 6 8 8 5 3 1 357 349 346 339 326 296 304 303 282 288 290 293 293 284 267 259 251 245 246 241 247 243 240 237 229
195 221 353 317 80 78 57 17 3 6 353 352 360 8 10 6 2 1 360 354 350 335 318 299 292 293 301 292 292 294 296 292 268 258 254 249 245 247 244 242 245 242 230
217 248 283 318 234 83 27 359 346 358 348 348 354 3 6 5 5 3 356 352 349 335 311 299 296 292 293 287 289 291 291 288 269 258 257 256 251 254 249 245 251 245 233
246 257 261 260 240 257 328 317 351 350 353 348 346 349 351 353 353 354 348 341 339 330 312 299 294 289 284 281 282 282 284 283 267 261 262 256 259 262 262 255 256 252 243
242 252 261 247 248 258 301 325 353 342 330 336 335 334 334 337 335 337 337 332 328 324 318 312 302 292 282 276 274 273 271 271 271 268 267 263 264 261 264 262 264 259 252
246 258 267 255 246 257 265 286 333 340 331 336 334 331 332 332 331 330 328 328 325 320 315 311 306 292 284 274 268 265 267 270 270 269 269 263 261 264 265 266 271 264 257
251 264 263 257 254 258 259 279 291 311 323 320 320 322 330 329 328 329 327 326 327 324 319 314 307 291 280 277 271 268 271 270 270 267 268 261 258 262 262 262 272 271 264
257 266 267 264 261 268 270 277 283 298 305 301 302 308 315 317 319 317 318 321 325 327 325 319 310 293 282 277 271 267 270 269 269 268 272 270 266 264 263 264 268 268 267
261 260 261 266 270 272 267 268 281 288 294 300 298 297 303 306 310 310 308 315 320 322 322 320 312 301 291 284 272 265 264 268 268 262 267 271 270 269 268 266 265 270 269
265 265 263 264 268 268 273 273 281 291 290 299 301 298 299 302 304 308 309 312 315 316 318 318 312 307 298 288 276 268 264 269 270 261 263 268 270 272 272 268 269 272 272
264 261 257 256 258 260 270 275 277 284 285 292 297 298 298 299 301 305 309 308 312 314 313 314 308 304 296 287 279 274 271 275 274 264 266 270 275 276 277 273 272 274 273
256 256 254 254 256 263 267 272 274 280 279 286 290 295 297 296 297 300 308 310 310 314 315 311 305 299 294 287 282 281 278 277 275 268 274 280 279 277 278 280 280 278 275
256 255 260 255 256 260 263 267 275 274 273 277 285 292 293 291 294 297 300 304 308 309 310 312 302 295 292 289 282 281 282 280 279 275 275 282 281 280 279 283 283 283 277
252 255 260 258 254 255 264 268 267 267 271 272 280 287 290 286 290 293 295 299 305 306 306 307 301 296 292 281 276 278 283 285 280 277 279 281 283 284 282 283 283 284 279
252 254 259 260 257 257 263 264 262 270 274 275 278 281 281 285 288 288 295 301 306 305 306 305 300 293 287 281 277 277 282 285 280 284 288 287 284 286 289 287 286 286 284
255 260 262 266 261 259 260 260 263 268 272 278 276 276 276 277 280 284 290 298 305 307 307 303 300 296 292 290 286 283 287 288 287 288 288 287 286 286 288 288 290 290 286
255 260 261 263 260 257 266 265 264 267 272 275 275 272 273 271 274 279 285 295 303 307 309 305 303 300 299 301 298 292 294 296 293 292 288 287 285 284 287 289 290 291 291
252 255 254 257 258 259 267 267 267 267 267 270 273 273 267 268 272 279 284 290 297 301 304 306 305 302 302 302 302 302 304 305 303 301 297 294 289 288 291 290 291 292 291
251 252 253 257 257 257 260 263 265 267 268 266 266 270 270 269 272 278 286 291 292 297 303 301 298 302 305 304 303 304 305 307 308 306 302 300 297 295 295 293 293 294 292
248 251 252 254 259 260 263 264 267 269 266 266 266 267 269 273 274 275 280 285 287 292 298 300 298 300 304 302 302 305 309 310 311 309 304 301 298 295 294 294 295 295 292
244 249 252 254 256 260 265 264 265 267 269 266 264 265 267 268 271 272 278 282 285 288 293 299 300 298 298 298 300 303 306 310 313 311 311 305 301 295 292 290 290 292 293
246 249 252 254 256 261 261 259 264 266 268 265 263 263 263 268 272 270 274 279 281 284 291 298 300 298 298 297 299 299 300 304 307 305 304 303 300 296 294 290 290 290 292
246 250 254 255 257 260 259 259 262 266 266 263 261 261 263 268 272 271 272 277 279 281 285 292 298 298 297 295 296 296 295 297 299 300 300 299 297 295 296 294 293 290 289
244 247 254 255 257 260 258 259 261 263 264 260 260 262 265 268 270 272 273 274 276 277 282 288 291 292 291 291 293 295 294 295 297 298 299 300 298 295 296 297 296 293 290
Height
5897 5896 5896 5896 5895 5895 5895 5894 5894 5893 5893 5892 5892 5891 5890 5889 5888 5888 5887 5886 5885 5884 5884 5883 5883 5883 5883 5883 5883 5883 5882 5882 5882 5882 5882 5882 5882 5882 5882 5882 5882 5882 5883
5897 5896 5896 5896 5896 5895 5895 5895 5894 5894 5893 5893 5892 5891 5890 5889 5888 5888 5887 5886 5885 5884 5884 5883 5883 5883 5883 5883 5882 5882 5882 5882 5882 5882 5882 5882 5882 5881 5881 5881 5882 5882 5882
5897 5897 5896 5896 5896 5895 5895 5895 5894 5894 5893 5893 5892 5891 5890 5889 5889 5888 5887 5886 5885 5884 5884 5883 5883 5882 5882 5882 5882 5882 5881 5881 5881 5881 5881 5881 5881 5881 5881 5881 5881 5881 5881
5897 5897 5896 5896 5896 5895 5895 5895 5895 5894 5893 5893 5892 5891 5890 5890 5889 5888 5887 5886 5885 5884 5883 5883 5882 5882 5882 5881 5881 5881 5881 5880 5880 5880 5880 5880 5880 5880 5880 5880 5880 5880 5880
5897 5897 5896 5896 5896 5895 5895 5895 5895 5894 5893 5893 5892 5891 5891 5890 5889 5888 5887 5886 5885 5884 5883 5882 5882 5881 5881 5881 5880 5880 5880 5879 5879 5879 5879 5879 5879 5879 5879 5879 5879 5879 5879
5896 5896 5896 5896 5896 5895 5895 5895 5895 5894 5893 5893 5892 5891 5890 5890 5889 5887 5887 5886 5885 5884 5883 5882 5881 5881 5880 5880 5880 5879 5879 5878 5878 5878 5878 5878 5878 5878 5878 5878 5878 5878 5878
5896 5896 5896 5895 5895 5895 5895 5895 5894 5894 5893 5892 5892 5891 5890 5889 5888 5887 5886 5885 5884 5883 5882 5881 5881 5880 5880 5879 5879 5878 5878 5877 5877 5877 5877 5877 5877 5877 5877 5877 5877 5877 5877
5896 5895 5895 5895 5895 5895 5894 5894 5894 5893 5892 5892 5891 5890 5889 5889 5888 5887 5886 5885 5884 5883 5882 5881 5880 5879 5879 5878 5878 5877 5877 5876 5876 5876 5876 5876 5876 5876 5876 5876 5876 5876 5876
5895 5895 5894 5894 5894 5894 5894 5893 5893 5893 5892 5892 5891 5890 5889 5888 5887 5887 5886 5885 5883 5882 5881 5880 5879 5878 5878 5877 5877 5876 5876 5875 5875 5875 5875 5875 5875 5875 5875 5875 5875 5874 5874
5894 5894 5894 5894 5894 5893 5893 5893 5892 5892 5891 5891 5890 5889 5889 5888 5887 5886 5885 5884 5883 5882 5881 5880 5879 5878 5877 5876 5876 5875 5875 5874 5874 5874 5874 5874 5874 5874 5874 5874 5873 5873 5873
5893 5893 5892 5893 5892 5892 5892 5892 5892 5891 5891 5890 5889 5888 5888 5887 5886 5885 5884 5883 5882 5881 5880 5879 5878 5877 5876 5875 5875 5874 5874 5873 5873 5873 5873 5873 5873 5872 5872 5872 5872 5872 5871
5891 5891 5891 5891 5891 5891 5891 5891 5890 5890 5889 5889 5888 5888 5887 5886 5885 5884 5883 5882 5881 5880 5879 5878 5877 5876 5875 5875 5874 5874 5873 5873 5872 5872 5872 5872 5871 5871 5871 5871 5870 5870 5869
5890 5890 5890 5889 5889 5889 5889 5889 5889 5889 5888 5888 5887 5886 5886 5885 5884 5883 5882 5881 5880 5879 5878 5877 5876 5875 5874 5874 5873 5873 5872 5872 5872 5871 5871 5870 5870 5869 5869 5869 5868 5868 5868
5889 5888 5888 5888 5888 5888 5888 5888 5887 5887 5887 5886 5886 5885 5884 5883 5883 5882 5881 5880 5879 5878 5877 5876 5875 5874 5873 5873 5872 5872 5871 5871 5870 5870 5869 5869 5868 5868 5867 5867 5866 5866 5865
5886 5887 5886 5886 5886 5886 5886 5886 5886 5886 5886 5885 5885 5884 5883 5882 5881 5880 5879 5878 5878 5877 5876 5875 5874 5873 5872 5872 5871 5871 5870 5870 5869 5869 5868 5867 5867 5866 5865 5865 5864 5864 5863
5884 5885 5885 5884 5884 5885 5885 5885 5885 5884 5884 5884 5883 5882 5881 5880 5880 5879 5878 5877 5877 5876 5875 5874 5873 5872 5871 5871 5870 5869 5869 5868 5868 5867 5866 5866 5865 5864 5864 5863 5862 5861 5861
5881 5882 5883 5882 5882 5883 5883 5883 5883 5883 5882 5882 5881 5881 5880 5879 5878 5878 5877 5876 5875 5874 5874 5873 5872 5871 5871 5870 5869 5868 5868 5867 5866 5865 5865 5864 5863 5863 5862 5861 5860 5859 5858
5879 5880 5880 5880 5880 5880 5881 5881 5881 5881 5880 5880 5879 5879 5878 5878 5877 5876 5876 5875 5874 5873 5872 5872 5871 5870 5869 5868 5868 5867 5866 5865 5865 5864 5863 5862 5861 5861 5860 5859 5858 5857 5856
5877 5878 5878 5878 5878 5878 5878 5879 5879 5878 5878 5878 5877 5877 5876 5876 5875 5875 5874 5873 5873 5872 5871 5870 5870 5869 5868 5867 5866 5866 5865 5864 5863 5862 5861 5860 5859 5859 5858 5857 5856 5855 5854
5875 5875 5876 5876 5876 5876 5876 5876 5876 5876 5876 5876 5876 5875 5875 5874 5874 5873 5872 5872 5871 5871 5870 5869 5868 5867 5867 5866 5865 5864 5863 5863 5862 5861 5860 5859 5858 5857 5856 5855 5854 5853 5852
5873 5873 5873 5874 5874 5874 5874 5874 5874 5874 5874 5873 5873 5873 5873 5872 5872 5871 5871 5870 5870 5869 5868 5867 5867 5866 5865 5864 5864 5863 5862 5861 5860 5859 5858 5857 5856 5855 5854 5853 5852 5851 5850
5870 5870 5871 5871 5872 5872 5872 5872 5872 5871 5871 5871 5871 5871 5871 5870 5870 5870 5869 5868 5868 5867 5867 5866 5865 5864 5864 5863 5862 5861 5860 5860 5858 5857 5856 5855 5854 5853 5852 5851 5850 5849 5848
5867 5868 5869 5869 5869 5869 5869 5869 5869 5869 5869 5869 5869 5868 5868 5868 5868 5867 5867 5867 5866 5866 5865 5864 5863 5863 5862 5861 5860 5860 5859 5857 5856 5855 5854 5853 5852 5851 5850 5849 5848 5847 5845
5865 5865 5866 5866 5866 5867 5867 5867 5867 5867 5867 5866 5866 5866 5866 5866 5865 5865 5865 5864 5864 5864 5863 5862 5861 5861 5860 5859 5858 5857 5857 5856 5855 5853 5852 5851 5850 5849 5848 5846 5845 5844 5843
5862 5863 5863 5863 5864 5864 5864 5864 5864 5864 5864 5864 5864 5863 5863 5863 5863 5863 5863 5862 5862 5862 5861 5860 5859 5858 5858 5857 5856 5855 5854 5853 5852 5851 5850 5849 5848 5846 5845 5844 5842 5841 5840
5859 5859 5860 5860 5860 5861 5861 5861 5862 5862 5862 5861 5861 5861 5861 5861 5861 5860 5860 5860 5859 5859 5858 5858 5857 5856 5855 5854 5853 5852 5852 5851 5850 5849 5847 5846 5845 5844 5842 5841 5839 5838 5837